Location: Newark
(21.1200°N, 73.4000°E)
Time: 22:01:39
(UTC+00:00)

Explorer 11/Cluster Stage 4 - Pass Details

Date: 25 January 2020
Orbit: 467 x 1259 km, 28.8° (Epoch: 19 February)

Event Time Altitude Azimuth Distance (km) Brightness Sun altitude
Rises 08:22:59 0° 253° (WSW) 4,136 10.6 46.8°
Reaches altitude 10° 08:25:51 10° 254° (WSW) 3,209 10.2 46.6°
Maximum altitude 08:34:08 78° 341° (NNW) 1,269 8.3 45.8°
Drops below altitude 10° 08:42:01 10° 67° (ENE) 3,064 9.4 44.9°
Sets 08:44:43 0° 69° (ENE) 3,943 9.8 44.6°
